Weather reports worldwide

Advertisment
Manston, United Kingdom (3797): temperature & dewpoint: 10.07.2020 04:00:00 - 16.07.2020 04:00:00 (BST)Manston, United Kingdom (3797): temperature -20cm & temperature -100cm: 10.07.2020 04:00:00 - 16.07.2020 04:00:00 (BST)Manston, United Kingdom (3797): wind speed: 10.07.2020 04:00:00 - 16.07.2020 04:00:00 (BST)Manston, United Kingdom (3797): wind direction: 10.07.2020 04:00:00 - 16.07.2020 04:00:00 (BST)Manston, United Kingdom (3797): reduced air pressure: 10.07.2020 04:00:00 - 16.07.2020 04:00:00 (BST)Manston, United Kingdom (3797): visibility: 10.07.2020 04:00:00 - 16.07.2020 04:00:00 (BST)Manston, United Kingdom (3797): sunshine duration: 10.07.2020 04:00:00 - 16.07.2020 04:00:00 (BST)Manston, United Kingdom (3797): precipitation: 10.07.2020 04:00:00 - 16.07.2020 04:00:00 (BST)
Date & Time tt [°C] td [°C] tt -20cm [°C] tt -100cm [°C] ff [km/h] ff [kn] dd ppp [hPa] vv [km] sd [min] rr [mm]
16.07.2020 04:00:00 14,5 13,7 - - 15 8 W 1017,0 12 0 0,2
16.07.2020 03:00:00 14,6 13,9 - - 15 8 WSW 1017,1 10 0 0,0
16.07.2020 02:00:00 14,6 13,6 - - 13 7 WSW 1017,2 10 0 0,0
16.07.2020 01:00:00 14,7 14,0 - - 13 7 W 1017,4 18 - 0,2
16.07.2020 00:00:00 14,5 13,9 - - 15 8 SW 1017,4 9 0 0,2
15.07.2020 23:00:00 14,6 13,7 - - 11 6 SW 1017,1 12 0 0,2
15.07.2020 22:00:00 14,8 13,4 - - 9 5 WSW 1017,0 4,3 0 0,2
15.07.2020 21:00:00 15,5 13,3 - - 5 3 SW 1016,6 25 0 0,0
15.07.2020 20:00:00 15,6 12,8 - - 8 4 WNW 1016,3 40 0 0,0
15.07.2020 19:00:00 16,0 13,1 - - 2 1 NW 1016,0 45 0 0,4
15.07.2020 18:00:00 16,5 12,3 - - 8 4 W 1015,7 27 0 0,0
15.07.2020 17:00:00 17,3 11,6 - - 11 6 SSW 1015,6 45 0 0,0
15.07.2020 16:00:00 17,9 10,2 - - 15 8 WNW 1015,5 40 0 0,0
15.07.2020 15:00:00 17,7 11,5 - - 11 6 SE 1015,6 30 0 0,0
15.07.2020 14:00:00 16,6 10,9 - - 22 12 SE 1015,9 50 0 0,0
15.07.2020 13:00:00 19,8 9,1 - - 13 7 WNW 1015,5 24 42 0,0
15.07.2020 12:00:00 19,2 8,8 - - 13 7 NW 1015,6 27 60 0,0
15.07.2020 11:00:00 18,5 8,8 - - 11 6 NW 1015,7 30 60 0,0
15.07.2020 10:00:00 17,1 9,1 17,5 14,7 13 7 WNW 1015,6 22 60 0,0
15.07.2020 09:00:00 16,4 8,3 - - 13 7 NW 1015,3 30 60 0,0
15.07.2020 08:00:00 16,0 9,8 - - 13 7 NNW 1015,1 40 60 0,0
15.07.2020 07:00:00 15,1 10,2 - - 16 9 NNW 1014,9 45 48 0,0
15.07.2020 06:00:00 13,8 10,4 - - 13 7 NNW 1014,8 35 0 0,0
15.07.2020 05:00:00 14,6 10,6 - - 15 8 NNW 1014,5 45 0 0,0
15.07.2020 04:00:00 15,3 11,6 - - 16 9 NNW 1014,5 45 0 0,0
15.07.2020 03:00:00 16,1 13,6 - - 15 8 NW 1014,4 30 0 0,0
15.07.2020 02:00:00 15,8 13,1 - - 5 3 NW 1014,4 40 0 0,0
15.07.2020 01:00:00 15,3 13,8 - - 8 4 W 1014,7 22 - 0,0
15.07.2020 00:00:00 15,7 13,9 - - 9 5 SW 1014,8 18 0 0,0
14.07.2020 23:00:00 16,2 13,9 - - 11 6 SW 1014,9 20 0 0,0
14.07.2020 22:00:00 16,2 14,4 - - 9 5 SSW 1014,8 15 0 0,0
14.07.2020 21:00:00 16,7 14,2 - - 11 6 S 1014,6 13 0 0,0
14.07.2020 20:00:00 17,6 13,9 - - 11 6 S 1014,7 18 0 0,0
14.07.2020 19:00:00 17,8 13,3 - - 11 6 S 1014,8 35 0 0,0
14.07.2020 18:00:00 19,2 10,3 - - 8 4 NNW 1014,9 40 6 0,0
14.07.2020 17:00:00 19,2 10,6 - - 9 5 NNW 1015,2 30 0 0,0
14.07.2020 16:00:00 19,6 10,6 - - 13 7 NW 1015,4 35 12 0,0
14.07.2020 15:00:00 19,1 11,1 - - 9 5 NW 1015,6 50 6 0,0
14.07.2020 14:00:00 18,6 11,3 - - 13 7 NNW 1015,8 50 0 0,0
14.07.2020 13:00:00 19,2 13,2 - - 15 8 NNW 1015,9 40 0 0,0
14.07.2020 12:00:00 18,4 13,7 - - 15 8 NNW 1016,1 35 6 0,0
14.07.2020 11:00:00 17,3 14,9 - - 15 8 N 1016,1 26 6 0,0
14.07.2020 10:00:00 15,8 14,9 17,7 14,7 16 9 N 1016,1 11 0 0,2
14.07.2020 09:00:00 15,8 14,8 - - 9 5 WNW 1015,9 2,4 0 0,2
14.07.2020 08:00:00 15,9 14,4 - - 9 5 W 1015,9 4,9 0 0,0
14.07.2020 07:00:00 15,6 14,0 - - 9 5 WSW 1015,9 22 0 0,0
14.07.2020 06:00:00 14,8 13,1 - - 9 5 W 1016,1 26 0 0,0
14.07.2020 05:00:00 14,7 12,7 - - 8 4 WSW 1016,2 40 0 0,2
14.07.2020 04:00:00 14,7 12,3 - - 9 5 WSW 1016,8 21 0 0,0
14.07.2020 03:00:00 15,2 11,7 - - 11 6 W 1017,2 20 0 0,0
14.07.2020 02:00:00 16,5 10,3 - - 9 5 W 1017,7 45 0 0,0
14.07.2020 01:00:00 16,6 10,3 - - 8 4 WSW 1017,9 50 - 0,0
14.07.2020 00:00:00 17,3 10,3 - - 13 7 WSW 1018,3 45 0 0,0
13.07.2020 23:00:00 17,7 9,9 - - 11 6 SW 1018,7 35 0 0,0
13.07.2020 22:00:00 18,5 9,4 - - 15 8 WSW 1019,1 40 0 0,0
13.07.2020 21:00:00 19,6 9,7 - - 16 9 SW 1019,1 50 0 0,0
13.07.2020 20:00:00 21,2 9,9 - - 18 10 SW 1019,1 50 0 0,0
13.07.2020 19:00:00 21,8 11,0 - - 15 8 SSW 1019,4 35 18 0,0
13.07.2020 18:00:00 24,2 6,7 - - 18 10 WNW 1019,7 30 48 0,0
13.07.2020 17:00:00 24,2 4,9 - - 15 8 WNW 1020,2 35 60 0,0
13.07.2020 16:00:00 25,4 8,7 - - 13 7 W 1020,7 40 54 0,0
13.07.2020 15:00:00 24,8 6,5 - - 15 8 WSW 1021,3 26 60 0,0
13.07.2020 14:00:00 24,3 7,4 - - 16 9 WSW 1022,1 24 24 0,0
13.07.2020 13:00:00 23,5 8,7 - - 16 9 SW 1022,8 26 0 0,0
13.07.2020 12:00:00 22,7 8,1 - - 15 8 WSW 1023,6 50 54 0,0
13.07.2020 11:00:00 21,8 9,5 - - 11 6 SW 1024,2 35 30 0,0
13.07.2020 10:00:00 20,3 8,2 16,7 14,7 11 6 W 1024,6 50 60 0,0
13.07.2020 09:00:00 19,0 9,0 - - 13 7 WSW 1024,9 40 60 0,0
13.07.2020 08:00:00 15,6 10,3 - - 11 6 S 1025,2 45 60 0,0
13.07.2020 07:00:00 14,1 10,3 - - 9 5 S 1025,4 45 60 0,0
13.07.2020 06:00:00 11,9 8,0 - - 11 6 S 1025,4 45 18 0,0
13.07.2020 05:00:00 12,2 6,5 - - 8 4 S 1025,5 50 0 0,0
13.07.2020 04:00:00 13,3 6,6 - - 4 2 S 1025,9 50 0 0,0
13.07.2020 03:00:00 11,4 5,4 - - 4 2 SE 1026,5 45 0 0,0
13.07.2020 02:00:00 12,1 6,5 - - 5 3 W 1026,9 50 0 0,0
13.07.2020 01:00:00 12,7 6,3 - - 8 4 W 1027,0 50 - 0,0
13.07.2020 00:00:00 12,0 7,7 - - 8 4 W 1027,2 50 0 0,0
12.07.2020 23:00:00 13,1 9,1 - - 8 4 SSW 1027,2 50 0 0,0
12.07.2020 22:00:00 14,1 8,7 - - 11 6 SSE 1027,1 50 0 0,0
12.07.2020 21:00:00 15,7 9,0 - - 15 8 SE 1027,0 40 30 0,0
12.07.2020 20:00:00 16,9 7,9 - - 16 9 ESE 1026,9 35 48 0,0
12.07.2020 19:00:00 18,0 7,4 - - 18 10 SE 1027,2 35 60 0,0
12.07.2020 18:00:00 18,5 5,5 - - 18 10 ESE 1027,6 50 60 0,0
12.07.2020 17:00:00 18,9 7,8 - - 18 10 ESE 1027,9 27 60 0,0
12.07.2020 16:00:00 18,9 6,6 - - 21 11 E 1028,1 45 54 0,0
12.07.2020 15:00:00 20,0 7,9 - - 21 11 E 1028,5 27 60 0,0
12.07.2020 14:00:00 19,9 7,3 - - 13 7 ENE 1028,7 40 60 0,0
12.07.2020 13:00:00 19,4 7,7 - - 15 8 E 1029,1 35 54 0,0
12.07.2020 12:00:00 18,4 10,7 - - 13 7 ESE 1029,3 45 6 0,0
12.07.2020 11:00:00 16,5 10,6 - - 11 6 ESE 1029,5 40 0 0,0
12.07.2020 10:00:00 16,4 9,5 16,5 14,7 9 5 SSE 1029,3 45 12 0,0
12.07.2020 09:00:00 17,6 9,5 - - 9 5 S 1029,1 35 48 0,0
12.07.2020 08:00:00 16,3 9,7 - - 4 2 S 1028,8 40 60 0,0
12.07.2020 07:00:00 13,6 10,7 - - 4 2 S 1028,6 30 60 0,0
12.07.2020 06:00:00 11,5 8,5 - - 4 2 W 1028,4 35 18 0,0
12.07.2020 05:00:00 10,3 7,5 - - 4 2 WNW 1028,2 40 0 0,0
12.07.2020 04:00:00 11,3 8,1 - - 2 1 NNW 1028,0 40 0 0,0
12.07.2020 03:00:00 11,5 7,7 - - 4 2 W 1028,0 45 0 0,0
12.07.2020 02:00:00 12,6 7,6 - - 4 2 WSW 1028,1 50 0 0,0
12.07.2020 01:00:00 13,9 9,9 - - 2 1 SSE 1028,2 45 - 0,0
12.07.2020 00:00:00 12,8 7,9 - - 2 1 E 1028,3 14 0 0,0
11.07.2020 23:00:00 13,9 9,2 - - 5 3 ESE 1028,2 45 0 0,0
11.07.2020 22:00:00 13,4 8,1 - - 8 4 E 1028,0 45 0 0,0
11.07.2020 21:00:00 15,7 7,6 - - 5 3 NNE 1027,5 45 36 0,0
11.07.2020 20:00:00 17,4 7,9 - - 9 5 N 1027,2 45 54 0,0
11.07.2020 19:00:00 17,1 7,5 - - 8 4 N 1027,1 45 12 0,0
11.07.2020 18:00:00 18,6 7,0 - - 15 8 NNW 1027,0 35 42 0,0
11.07.2020 17:00:00 19,1 7,3 - - 11 6 NW 1027,0 30 18 0,0
11.07.2020 16:00:00 17,6 7,1 - - 11 6 NNW 1027,0 45 6 0,0
11.07.2020 15:00:00 19,1 7,9 - - 13 7 WNW 1026,8 30 54 0,0
11.07.2020 14:00:00 18,6 8,2 - - 15 8 W 1026,6 40 54 0,0
11.07.2020 13:00:00 18,8 8,8 - - 18 10 NW 1026,6 35 54 0,0
11.07.2020 12:00:00 16,8 8,2 - - 16 9 NW 1026,5 28 54 0,0
11.07.2020 11:00:00 16,8 9,8 - - 18 10 WNW 1026,2 40 60 0,0
11.07.2020 10:00:00 15,2 9,6 16,7 14,7 18 10 WNW 1025,7 40 54 0,0
11.07.2020 09:00:00 14,0 8,8 - - 16 9 WNW 1025,5 29 48 0,0
11.07.2020 08:00:00 14,0 9,6 - - 18 10 NW 1025,1 30 54 0,0
11.07.2020 07:00:00 13,2 9,2 - - 16 9 NW 1024,5 30 60 0,0
11.07.2020 06:00:00 12,4 9,4 - - 9 5 NW 1024,2 20 12 0,0
11.07.2020 05:00:00 11,9 9,0 - - 13 7 NW 1023,7 50 0 0,0
11.07.2020 04:00:00 12,7 9,1 - - 16 9 NW 1023,3 45 0 0,0
11.07.2020 03:00:00 13,2 9,0 - - 15 8 NW 1023,1 50 0 0,0
11.07.2020 02:00:00 13,5 9,0 - - 15 8 NW 1022,8 50 0 0,0
11.07.2020 01:00:00 13,1 8,6 - - 13 7 NW 1022,3 50 - 0,0
11.07.2020 00:00:00 14,3 9,8 - - 16 9 NW 1022,1 45 0 0,0
10.07.2020 23:00:00 14,5 8,0 - - 13 7 NW 1021,5 45 0 0,0
10.07.2020 22:00:00 14,5 7,8 - - 11 6 WNW 1021,0 50 0 0,0
10.07.2020 21:00:00 15,4 9,1 - - 15 8 N 1020,4 45 24 0,0
10.07.2020 20:00:00 16,6 7,5 - - 15 8 WNW 1019,9 35 18 0,0
10.07.2020 19:00:00 17,5 7,7 - - 15 8 NW 1019,5 50 6 0,0
10.07.2020 18:00:00 17,7 7,2 - - 18 10 NW 1019,2 30 12 0,0
10.07.2020 17:00:00 17,7 8,1 - - 18 10 WNW 1018,9 45 36 0,0
10.07.2020 16:00:00 18,8 7,4 - - 26 14 WNW 1018,5 27 60 0,0
10.07.2020 15:00:00 19,2 8,3 - - 22 12 WNW 1018,0 20 60 0,0
10.07.2020 14:00:00 18,6 10,5 - - 22 12 WNW 1017,9 30 54 0,0
10.07.2020 13:00:00 16,4 11,3 - - 16 9 WNW 1017,5 27 6 0,0
10.07.2020 12:00:00 17,0 10,8 - - 16 9 NW 1016,9 40 42 -
10.07.2020 11:00:00 16,9 10,6 - - 22 12 NW 1016,4 35 48 -
10.07.2020 10:00:00 15,6 10,2 16,9 14,7 26 14 NW 1015,6 50 54 0,0
10.07.2020 09:00:00 15,5 11,6 - - 28 15 NNW 1014,9 35 30 0,0
10.07.2020 08:00:00 13,8 11,5 - - 28 15 NNW 1014,2 29 0 0,0
10.07.2020 07:00:00 13,8 12,2 - - 28 15 NNW 1013,3 30 0 0,0
10.07.2020 06:00:00 13,8 12,8 - - 21 11 NNW 1012,5 35 0 0,0
10.07.2020 05:00:00 14,1 13,2 - - 18 10 NNW 1011,8 9 0 0,2
10.07.2020 04:00:00 14,4 13,4 - - 21 11 NNW 1011,4 35 0 0,0

tt = temperature
td = dewpoint
tt -20cm = temperature -20cm
tt -100cm = temperature -100cm
ff = wind speed
dd = wind direction
ppp = reduced air pressure
vv = visibility
sd = sunshine duration
rr = precipitation

Next stations